CW3590 Weather Reports


Display with metric or nautical units.
time (UTC)temp
F
wind
direction
speed
MPH
gust
MPH
rain 1hr
in
rain 24hr
in
rain mn
in
humidity
%
barometer
mb
20260902223010 85 132 3.0 11.0 0.00 0.00 0.00 70 1011.4
20260902222010 87 123 3.0 10.0 0.00 0.00 0.00 66 1011.3
20260902221010 88 138 4.0 12.0 0.00 0.00 0.00 66 1011.4
20260902220010 87 88 4.0 20.0 0.00 0.00 0.00 66 1011.3
20260902215010 88 144 3.0 15.0 0.00 0.00 0.00 64 1011.2
20260902214010 88 152 3.0 11.0 0.00 0.00 0.00 66 1011.3
20260902212010 88 75 4.0 11.0 0.00 0.00 0.00 67 1011.2
20260902211010 88 89 5.0 13.0 0.00 0.00 0.00 67 1011.4
20260902210010 89 67 5.0 17.0 0.00 0.00 0.00 65 1011.4
20260902205010 90 130 3.0 14.0 0.00 0.00 0.00 64 1011.4
20260902204010 89 88 4.0 9.0 0.00 0.00 0.00 65 1011.7
20260902203010 90 66 4.0 14.0 0.00 0.00 0.00 64 1011.7
20260902202011 89 63 4.0 10.0 0.00 0.00 0.00 65 1011.7
20260902201009 89 73 4.0 17.0 0.00 0.00 0.00 66 1011.8
20260902200010 90 89 4.0 16.0 0.00 0.00 0.00 65 1011.8
20260902194010 89 98 5.0 10.0 0.00 0.00 0.00 66 1012.1
20260902193010 89 69 4.0 21.0 0.00 0.00 0.00 65 1012.0
20260902192009 89 84 3.0 12.0 0.00 0.00 0.00 67 1012.1
20260902191010 88 98 4.0 15.0 0.00 0.00 0.00 67 1012.2
20260902190010 88 61 4.0 15.0 0.00 0.00 0.00 68 1012.3
20260902185010 87 66 4.0 16.0 0.00 0.00 0.00 69 1012.5
20260902184009 88 152 3.0 8.0 0.00 0.00 0.00 68 1012.5
20260902183010 88 102 4.0 9.0 0.00 0.00 0.00 69 1012.8
20260902182009 87 83 4.0 17.0 0.00 0.00 0.00 68 1013.1
20260902181010 88 124 3.0 10.0 0.00 0.00 0.00 69 1013.2
20260902174011 88 82 5.0 14.0 0.00 0.00 0.00 67 1013.3
20260902173010 87 42 5.0 15.0 0.00 0.00 0.00 68 1013.3
20260902172010 87 46 4.0 11.0 0.00 0.00 0.00 70 1013.2
20260902171009 86 50 4.0 14.0 0.00 0.00 0.00 72 1013.5
20260902170010 85 47 3.0 11.0 0.00 0.00 0.00 72 1013.8
20260902165009 85 49 4.0 14.0 0.00 0.00 0.00 72 1014.0
20260902164010 85 48 4.0 16.0 0.00 0.00 0.00 74 1014.2
20260902163009 85 52 5.0 14.0 0.00 0.00 0.00 76 1014.3
20260902162010 84 58 3.0 12.0 0.00 0.00 0.00 78 1014.8
20260902161009 84 40 3.0 12.0 0.00 0.00 0.00 79 1014.5
20260902160010 83 58 4.0 15.0 0.00 0.00 0.00 80 1014.3
20260902155009 83 48 4.0 16.0 0.00 0.00 0.00 81 1014.3
20260902153010 83 46 3.0 10.0 0.00 0.00 0.00 81 1014.4
20260902152010 83 63 3.0 12.0 0.00 0.00 0.00 84 1014.3
20260902151009 81 60 3.0 10.0 0.00 0.00 0.00 86 1014.4
20260902150009 81 57 4.0 10.0 0.00 0.00 0.00 87 1014.2
20260902145010 80 84 3.0 11.0 0.00 0.00 0.00 88 1014.5
20260902144010 80 51 4.0 10.0 0.00 0.00 0.00 89 1014.5
20260902142010 79 55 3.0 9.0 0.00 0.00 0.00 90 1014.3
20260902141010 78 35 2.0 6.0 0.00 0.00 0.00 90 1014.3
20260902140010 78 43 3.0 10.0 0.00 0.00 0.00 90 1014.3
20260902135010 78 53 3.0 9.0 0.00 0.00 0.00 90 1014.3
20260902134009 77 60 2.0 8.0 0.00 0.00 0.00 90 1014.3
20260902132009 77 64 3.0 10.0 0.00 0.00 0.00 89 1014.1
20260902131010 76 56 2.0 6.0 0.00 0.00 0.00 89 1014.0
20260902130009 76 48 1.0 7.0 0.00 0.00 0.00 88 1014.1
20260902123009 76 65 0.0 5.0 0.00 0.00 0.00 87 1014.1
20260902122010 76 59 1.0 3.0 0.00 0.00 0.00 86 1014.1
20260902121009 76 63 1.0 3.0 0.00 0.00 0.00 86 1014.1
20260902120010 76 23 1.0 6.0 0.00 0.00 0.00 86 1014.1
20260902114009 76 18 1.0 3.0 0.00 0.00 0.00 85 1014.0
20260902112010 76 5 1.0 3.0 0.00 0.00 0.00 84 1013.7
20260902110009 76 19 1.0 3.0 0.00 0.00 0.00 84 1013.8
20260902105009 76 21 0.0 2.0 0.00 0.00 0.00 83 1013.7
20260902103010 77 0 0.0 0.0 0.00 0.00 0.00 82 1013.7
20260902102009 77 0 0.0 0.0 0.00 0.00 0.00 82 1013.9
20260902101009 77 0 0.0 1.0 0.00 0.00 0.00 82 1013.9
20260902095010 77 0 0.0 2.0 0.00 0.00 0.00 81 1013.6
20260902093010 77 0 0.0 1.0 0.00 0.00 0.00 81 1013.6
20260902092009 77 0 0.0 1.0 0.00 0.00 0.00 80 1013.7
20260902085009 78 46 1.0 4.0 0.00 0.00 0.00 80 1013.6
20260902081009 78 0 0.0 1.0 0.00 0.00 0.00 78 1013.7
20260902080009 79 0 0.0 3.0 0.00 0.00 0.00 77 1013.7
20260902075010 79 0 0.0 1.0 0.00 0.00 0.00 77 1013.9
20260902074009 79 0 0.0 2.0 0.00 0.00 0.00 76 1013.8
20260902073009 79 0 0.0 2.0 0.00 0.00 0.00 75 1014.0
20260902072009 79 0 0.0 0.0 0.00 0.00 0.00 75 1014.1
20260902071009 79 0 0.0 1.0 0.00 0.00 0.00 75 1013.9
20260902070009 80 0 0.0 0.0 0.00 0.00 0.00 74 1013.9
20260902065009 80 0 0.0 1.0 0.00 0.00 0.00 74 1013.9
20260902064009 80 0 0.0 1.0 0.00 0.00 0.00 73 1014.0
20260902063008 80 0 0.0 0.0 0.00 0.00 0.00 73 1014.0
20260902062009 81 0 0.0 1.0 0.00 0.00 0.00 73 1014.0
20260902061010 81 0 0.0 1.0 0.00 0.00 0.00 73 1014.1
20260902060009 81 0 0.0 1.0 0.00 0.00 0.00 72 1014.0
20260902055009 82 0 0.0 1.0 0.00 0.00 0.00 72 1014.0
20260902054009 82 0 0.0 0.0 0.00 0.00 0.00 72 1014.1
20260902052009 82 0 0.0 1.0 0.00 0.00 0.00 71 1014.0
20260902051009 83 0 0.0 1.0 0.00 0.00 0.00 70 1014.0
20260902050010 83 0 0.0 2.0 0.00 0.00 0.00 70 1014.0
20260902045010 83 0 0.0 2.0 0.00 0.00 0.00 70 1014.0
20260902043008 84 176 0.0 3.0 0.00 0.00 0.00 69 1014.0
20260902041009 84 196 1.0 3.0 0.00 0.00 0.00 68 1014.0
20260902040009 85 0 0.0 2.0 0.00 0.00 0.00 68 1014.0
20260902035009 85 199 1.0 2.0 0.00 0.00 0.00 68 1014.0
20260902034010 85 178 1.0 3.0 0.00 0.00 0.00 68 1014.1
20260902033009 85 142 1.0 2.0 0.00 0.00 0.00 67 1014.0
20260902031008 86 163 0.0 2.0 0.00 0.00 0.00 67 1013.9
20260902025009 86 0 0.0 2.0 0.00 0.00 0.00 67 1013.6
20260902024009 87 0 0.0 1.0 0.00 0.00 0.00 66 1013.4
20260902023009 87 0 0.0 2.0 0.00 0.00 0.00 66 1013.4
20260902022010 87 0 0.0 0.0 0.00 0.00 0.00 65 1013.1
20260902021010 88 165 1.0 2.0 0.00 0.00 0.00 65 1013.0
20260902014009 89 153 1.0 2.0 0.00 0.00 0.00 63 1012.9
20260902013010 89 152 1.0 2.0 0.00 0.00 0.00 62 1012.8
20260902012009 89 165 2.0 4.0 0.00 0.00 0.00 62 1012.8
20260902011009 90 167 2.0 3.0 0.00 0.00 0.00 61 1012.8
20260902010009 90 152 2.0 5.0 0.00 0.00 0.00 61 1012.8
20260902005009 91 159 2.0 5.0 0.00 0.00 0.00 60 1012.6
20260902004008 92 165 2.0 4.0 0.00 0.00 0.00 58 1012.4
20260902003008 93 166 3.0 5.0 0.00 0.00 0.00 56 1012.4
20260902001008 93 81 3.0 6.0 0.00 0.00 0.00 49 1011.7
20260902000008 94 77 3.0 8.0 0.00 0.00 0.00 49 1011.6
20260901235008 94 79 2.0 10.0 0.00 0.00 0.00 48 1011.5
20260901234009 94 77 2.0 7.0 0.00 0.00 0.00 48 1011.5
20260901233008 95 90 2.0 8.0 0.00 0.00 0.00 48 1011.6
20260901232009 95 62 3.0 8.0 0.00 0.00 0.00 47 1011.6
20260901231009 96 100 2.0 10.0 0.00 0.00 0.00 46 1011.7
20260901230009 96 72 3.0 7.0 0.00 0.00 0.00 47 1011.7
20260901225008 96 47 4.0 9.0 0.00 0.00 0.00 48 1011.7
20260901224009 97 57 3.0 11.0 0.00 0.00 0.00 47 1011.8